Wind_Gust
22 21 22 22 23 23 23 24 23 23 24 24 25 25 25 25 27 28 28 29 27 27 28 27 27 28 29 27 28 28 27 28 27 28 26 29 27 26 28 25 23 22
20 22 22 21 22 23 23 23 23 24 24 23 24 24 24 25 27 28 29 29 27 28 28 28 28 27 27 29 29 29 29 30 28 29 28 28 26 26 27 26 24 22
19 21 22 22 23 22 22 22 22 24 23 24 23 23 25 25 27 27 29 29 28 28 28 29 29 28 28 27 28 29 29 30 29 30 27 25 26 26 26 25 23 22
19 20 21 21 22 22 22 23 23 24 24 25 25 24 25 26 26 28 29 28 28 29 28 29 30 29 28 28 29 30 29 29 27 28 26 27 28 28 28 26 24 25
18 19 19 20 20 20 20 22 24 25 26 25 24 24 26 27 27 28 29 29 28 28 28 28 29 29 28 29 29 31 31 30 30 28 26 26 28 29 28 28 27 27
18 19 19 20 20 20 21 22 24 25 25 24 24 24 24 25 26 27 28 27 29 29 28 29 30 28 29 29 30 31 32 32 32 32 29 25 26 28 31 30 30 29
18 18 19 20 19 20 20 20 23 23 24 24 24 24 25 26 26 27 27 27 27 28 28 28 29 31 29 31 30 32 33 31 32 34 32 28 29 32 33 29 30 30
18 18 19 20 19 20 21 21 21 23 23 24 23 24 24 25 26 26 26 26 26 27 28 29 29 29 29 30 32 33 31 33 30 35 34 32 31 33 35 29 29 32
17 18 19 19 19 19 21 21 20 20 22 23 25 24 23 24 25 26 27 27 27 28 28 29 29 28 29 29 30 32 33 32 29 31 34 34 34 33 33 30 31 32
18 18 19 19 19 20 20 20 20 20 20 21 22 23 24 23 24 26 26 27 28 30 29 29 29 29 29 28 29 30 30 30 27 28 30 32 34 33 33 34 31 30
17 18 19 19 19 19 19 19 20 20 20 21 22 22 22 23 25 25 26 28 30 30 29 29 29 29 30 30 30 28 28 28 26 25 27 29 31 31 29 32 33 32
17 17 18 19 19 18 18 19 20 20 20 20 21 21 22 23 25 25 25 27 28 28 27 28 28 29 29 30 30 29 30 27 25 24 24 25 27 29 31 32 30 32
17 17 18 17 18 18 18 19 20 20 21 21 20 21 21 23 24 25 26 26 26 27 28 28 28 29 30 30 30 30 29 27 26 25 24 23 26 28 27 30 32 31
16 16 17 17 17 17 18 18 19 20 20 20 20 21 22 23 24 24 25 26 26 26 26 26 27 29 32 33 31 29 28 26 25 27 26 24 24 27 28 28 30 30
14 15 16 16 17 18 18 18 19 19 20 20 20 21 21 22 22 24 25 27 28 27 27 28 30 31 33 35 33 31 27 25 26 27 27 25 25 25 26 28 27 27
15 15 16 16 17 18 18 18 18 18 19 20 21 21 21 21 22 24 25 28 28 27 27 28 30 30 33 33 27 31 27 23 24 26 27 27 26 26 27 28 27 25
15 15 16 17 16 17 17 19 19 18 19 20 20 21 21 21 22 25 27 27 27 27 27 27 29 34 33 27 27 29 27 22 23 26 27 28 29 28 27 27 26 25
15 16 16 16 16 18 18 19 18 19 19 19 20 20 21 20 22 24 25 25 26 26 27 28 28 32 30 30 27 27 25 25 21 24 27 29 28 29 29 27 26 26
15 16 16 16 17 17 17 18 19 19 19 19 20 19 19 21 22 22 24 25 26 25 27 28 27 32 30 31 27 28 25 22 22 22 26 29 29 29 30 30 28 27
15 16 16 16 16 16 17 17 18 19 17 17 18 19 20 20 20 22 22 24 26 24 25 27 30 33 31 30 28 27 27 21 21 21 23 27 31 31 30 31 30 30
15 16 16 16 16 16 16 17 17 16 17 17 17 18 19 21 21 21 21 21 25 25 24 26 32 34 30 30 28 30 29 15 21 20 21 23 28 29 30 32 31 29
15 15 16 16 16 16 17 17 16 16 16 16 17 17 17 18 19 20 21 22 23 24 24 24 30 32 31 31 30 29 28 20 21 21 22 23 25 28 29 32 33 32
15 16 16 16 16 16 17 16 16 16 16 16 16 17 17 18 18 19 20 21 23 24 25 23 26 31 31 31 31 30 23 22 20 21 22 23 24 25 27 30 34 35
15 16 16 16 16 17 17 16 15 14 15 15 16 16 18 18 18 19 20 22 23 23 27 22 23 29 32 30 31 31 27 23 21 21 21 22 21 22 22 26 31 39
16 16 16 16 17 16 15 15 16 15 14 14 15 15 17 17 19 20 20 21 21 21 23 25 23 25 30 29 31 31 32 23 23 21 23 23 22 22 21 22 26 28
16 16 15 16 17 16 15 15 14 15 15 16 16 17 17 17 18 19 20 21 20 22 24 25 25 24 31 30 30 30 31 29 23 24 24 22 23 26 24 23 24 26
Wind_Speed
9 8 9 8 9 9 9 10 9 10 10 10 10 11 11 12 13 13 14 13 13 13 13 13 14 15 13 13 14 15 13 13 12 12 14 15 15 15 14 15 14 11
9 9 9 8 8 9 9 9 9 9 10 10 9 10 11 12 13 13 14 14 13 13 12 12 12 14 14 14 15 14 13 12 13 13 15 17 14 15 16 16 14 11
9 9 10 10 9 10 10 9 9 9 9 9 10 11 11 11 12 13 13 13 12 12 12 12 13 13 14 15 15 14 11 11 13 13 14 15 14 14 14 13 11 9
9 9 9 9 9 10 9 9 9 9 9 9 11 11 11 11 13 14 13 13 12 12 12 13 14 13 14 16 16 15 14 11 12 12 13 14 14 14 15 12 13 5
9 9 9 9 9 9 9 10 10 10 10 10 10 12 11 12 13 13 13 13 13 13 12 13 14 13 14 15 16 15 15 13 12 14 12 14 13 15 14 15 14 16
9 9 9 9 9 9 9 10 10 11 10 11 11 11 12 13 13 14 14 13 12 12 13 13 14 13 14 15 15 16 15 15 15 16 15 13 13 13 15 14 14 15
9 8 9 8 9 10 9 9 9 9 10 10 10 12 12 13 13 14 14 13 12 13 13 13 14 14 13 13 15 17 15 16 16 18 17 14 13 14 16 15 14 14
9 8 8 8 9 10 10 9 9 9 9 10 10 11 12 13 14 13 12 13 13 14 13 14 15 15 14 13 15 17 18 16 15 19 18 18 17 18 15 14 12 14
8 8 8 9 10 9 11 10 9 9 9 10 10 10 11 12 13 13 13 12 12 13 14 14 15 15 14 14 15 18 18 16 15 18 18 18 18 18 18 17 14 14
8 8 9 9 9 9 11 10 10 9 9 10 10 10 11 12 12 13 13 14 14 14 14 15 16 15 15 14 15 16 16 16 15 16 17 17 17 17 17 18 16 14
8 8 9 9 9 9 10 10 10 9 9 10 10 10 11 12 12 12 13 13 13 16 15 15 15 16 16 16 15 14 14 13 14 14 15 16 17 16 17 17 18 18
8 8 9 9 9 9 9 10 10 10 10 9 10 11 11 11 12 12 11 12 14 14 15 14 15 15 16 16 15 14 13 13 12 12 13 13 15 16 16 16 17 18
7 8 8 8 8 8 8 9 10 10 10 10 10 10 10 11 12 12 10 14 13 13 14 15 14 15 15 16 16 15 13 13 13 13 13 12 14 15 14 14 16 16
7 7 8 8 8 8 8 9 9 10 10 10 10 10 11 11 12 12 13 11 12 13 13 12 14 14 16 17 16 15 13 12 12 12 13 13 14 15 15 15 14 15
6 6 7 7 8 8 8 9 9 9 10 10 10 10 9 10 11 12 11 13 14 13 13 12 11 12 14 17 16 16 14 12 12 12 12 13 13 13 14 14 14 13
6 6 7 7 8 8 8 9 8 9 9 10 10 10 10 10 12 12 13 14 13 14 13 12 12 11 20 25 19 14 13 10 10 11 12 12 13 13 13 13 13 11
6 6 6 7 7 7 8 9 9 8 9 10 10 10 10 10 11 13 12 12 13 13 12 11 11 14 26 22 22 22 15 10 10 10 12 12 13 13 13 13 13 13
6 6 7 7 7 8 8 9 9 9 9 9 9 10 10 10 11 12 13 12 11 13 13 12 11 22 22 23 20 20 18 12 10 9 10 11 12 13 12 12 13 12
6 6 7 7 7 8 7 8 9 9 9 9 10 9 9 10 10 11 12 12 12 13 12 12 13 22 22 24 20 22 20 15 9 10 10 11 12 13 13 13 12 11
6 6 7 7 7 7 7 8 8 9 8 7 8 8 9 9 10 11 10 12 12 12 12 11 14 22 22 23 20 21 22 16 10 10 10 11 12 13 12 13 13 12
6 7 7 7 7 7 7 8 8 7 8 7 7 8 9 9 10 10 10 11 12 12 11 11 13 25 22 24 21 24 24 13 10 9 10 10 11 13 14 14 14 12
6 6 7 6 7 7 7 7 7 7 7 7 7 7 7 8 8 9 10 11 11 12 11 11 13 24 24 23 24 22 23 9 10 9 10 10 10 11 13 14 14 14
6 7 7 6 6 7 7 7 7 7 7 6 7 7 7 8 8 9 9 10 12 12 11 11 12 21 24 24 24 22 17 10 10 9 9 10 11 10 11 14 16 17
6 7 7 7 7 7 7 6 6 5 6 6 7 7 7 8 8 8 9 10 11 12 12 10 11 19 23 23 24 23 20 11 9 9 10 10 9 10 9 10 15 26
6 7 7 7 7 6 6 6 6 6 5 5 6 6 7 7 8 8 9 9 10 10 14 13 11 15 23 22 24 23 19 11 10 9 10 11 9 9 9 9 10 15
6 7 7 7 7 7 6 6 6 6 7 7 7 7 7 7 7 8 9 9 9 10 10 12 12 12 18 20 23 23 24 14 10 10 11 10 10 9 9 10 10 10
Wind_Direction
31 28 27 25 25 18 17 10 10 8 10 5 3 1 1 0 1 357 359 355 356 355 352 350 353 353 352 349 346 347 347 344 339 333 330 333 333 330 323 319 319 320
32 31 30 24 22 19 16 15 12 9 8 6 5 1 3 0 2 359 360 357 357 355 353 344 340 339 346 351 350 346 348 343 342 341 335 336 334 331 332 327 326 324
31 30 30 26 22 21 16 15 14 11 8 5 2 9 4 4 359 8 3 360 358 355 345 339 338 340 349 355 351 351 352 346 347 339 340 341 335 336 338 333 319 315
32 31 28 27 24 22 17 15 16 13 8 4 8 10 8 8 9 8 6 4 4 351 345 344 345 347 353 359 355 355 358 359 354 343 342 344 345 345 345 334 319 301
31 32 31 30 28 22 21 16 15 14 10 3 10 12 9 12 10 11 9 7 8 359 350 347 346 348 354 2 360 1 2 355 353 358 354 349 347 355 352 349 353 32
36 33 31 32 27 22 20 18 12 13 9 3 13 14 16 16 14 14 11 12 360 10 356 351 350 353 354 2 2 6 6 357 1 3 5 357 350 358 4 353 9 24
36 35 33 31 28 23 20 19 14 12 10 2 6 18 14 17 16 18 15 12 9 8 352 353 350 354 357 2 9 8 8 0 356 9 9 9 5 4 7 2 8 23
37 36 34 30 27 23 19 17 16 13 8 5 4 11 19 18 19 21 15 12 12 8 354 354 355 356 358 357 6 9 14 11 356 9 12 14 17 14 12 7 8 24
39 36 33 30 30 25 19 15 15 13 11 9 5 6 18 21 21 22 21 21 16 3 1 358 356 358 0 0 6 12 17 10 1 8 11 14 19 20 19 15 12 25
38 37 33 31 30 26 20 16 13 12 12 11 9 7 17 23 23 22 21 24 13 9 6 359 357 358 359 1 2 10 12 7 2 2 15 17 21 19 21 23 19 26
36 34 32 31 31 27 22 18 15 12 11 12 10 10 13 23 24 24 26 27 22 18 3 3 358 358 358 359 359 1 9 9 3 357 7 20 24 28 29 28 29 31
36 32 31 31 29 28 23 20 17 13 12 13 12 10 16 22 25 27 24 25 25 19 19 3 1 358 359 357 355 357 6 11 6 357 354 3 23 32 31 33 35 35
36 33 29 28 31 29 25 22 19 15 12 14 11 14 16 22 24 26 26 36 27 23 14 6 1 1 359 357 355 356 1 9 8 1 355 360 9 19 25 31 35 39
38 31 30 30 30 31 29 25 20 17 15 14 12 17 18 23 24 23 27 29 31 26 19 13 6 3 2 357 356 353 352 6 9 4 1 7 13 17 20 25 30 34
46 34 32 32 31 32 30 26 24 19 17 17 17 19 20 21 21 30 22 33 35 28 23 16 13 9 7 359 350 350 351 7 7 9 8 11 16 18 21 23 25 26
52 46 39 36 33 32 29 27 26 24 19 21 19 18 21 22 23 30 27 30 29 30 25 20 15 13 354 348 347 348 349 5 9 13 13 16 16 17 20 23 21 19
57 49 45 40 38 35 31 29 29 27 26 22 21 19 20 26 27 31 30 32 33 31 26 19 19 5 351 354 350 346 347 354 16 14 17 19 19 18 16 12 14 17
62 60 53 45 40 39 31 30 28 30 30 25 22 21 23 26 31 32 33 32 32 33 31 20 18 3 348 352 345 343 346 349 26 18 19 23 21 20 20 14 11 13
69 63 60 54 46 40 36 32 30 30 28 25 23 22 23 27 29 31 34 34 33 34 31 22 18 4 352 353 346 345 343 340 34 24 25 28 25 24 22 17 13 13
72 70 69 62 53 48 41 36 33 30 28 27 24 23 26 25 25 26 28 34 33 32 33 27 21 2 357 353 348 345 344 334 35 27 32 32 30 30 27 21 18 18
75 75 72 66 61 54 48 44 33 29 28 27 27 27 25 26 22 23 24 26 32 35 34 31 24 6 1 356 351 349 340 328 31 31 35 36 35 34 33 27 21 18
81 80 77 73 66 58 55 49 41 31 28 27 31 31 31 30 30 28 27 28 28 31 31 31 27 13 3 1 356 351 333 3 22 30 33 37 35 37 39 32 25 20
81 80 77 73 68 65 57 51 44 39 33 24 31 34 32 33 34 32 31 29 29 28 20 31 30 17 7 4 359 352 343 13 17 28 27 34 38 31 43 43 35 24
82 83 82 74 70 63 59 56 50 45 41 25 31 32 37 36 37 38 37 35 33 33 21 25 34 26 13 8 3 358 346 3 13 24 27 26 37 38 37 48 49 38
80 81 78 74 70 65 60 58 49 44 40 35 38 45 42 44 39 42 40 38 35 37 32 28 31 32 20 11 9 5 358 360 12 15 23 24 23 34 40 37 42 46
85 80 74 73 73 68 63 56 52 50 44 43 42 44 46 40 41 44 42 38 34 34 38 33 28 36 30 16 16 12 4 357 20 13 14 17 23 24 32 35 37 35